This is the latest recevied weather packets stored in our database for station/object IU1OLT-5. If no packets are shown the sender has not sent any weather packets the latest 10 day(s).
| Time | Temp. | Humidity | Pressure | Rain* | Wind** | Luminosity | Snow |
|---|---|---|---|---|---|---|---|
| 1777643771 | 20.56° C | 45% | 1023.7 hPa | 0 mm | - | 517 W/m² | - |
| 1777642871 | 21.11° C | 45% | 1023.8 hPa | 0 mm | - | 548 W/m² | - |
| 1777641971 | 20.56° C | 40% | 1024 hPa | 0 mm | - | 582 W/m² | - |
| 1777641070 | 20° C | 41% | 1024.2 hPa | 0 mm | - | 613 W/m² | - |
| 1777640170 | 20° C | 44% | 1024.3 hPa | 0 mm | - | 635 W/m² | - |
| 1777639270 | 18.89° C | 47% | 1024.5 hPa | 0 mm | - | 664 W/m² | - |
| 1777638370 | 18.33° C | 48% | 1024.4 hPa | 0 mm | - | 686 W/m² | - |
| 1777637470 | 18.89° C | 45% | 1024.5 hPa | 0 mm | - | 702 W/m² | - |
| 1777636570 | 18.33° C | 46% | 1024.6 hPa | 0 mm | - | 716 W/m² | - |
| 1777635669 | 18.33° C | 47% | 1024.8 hPa | 0 mm | - | 724 W/m² | - |
| 1777634769 | 18.33° C | 49% | 1024.7 hPa | 0 mm | - | 731 W/m² | - |
| 1777633869 | 18.33° C | 47% | 1024.8 hPa | 0 mm | - | 733 W/m² | - |
| 1777632969 | 17.78° C | 47% | 1025 hPa | 0 mm | - | 733 W/m² | - |
| 1777632069 | 17.22° C | 45% | 1025.2 hPa | 0 mm | - | 728 W/m² | - |
| 1777631169 | 17.22° C | 47% | 1025.2 hPa | 0 mm | - | 719 W/m² | - |
| 1777630269 | 17.78° C | 44% | 1025.1 hPa | 0 mm | - | 704 W/m² | - |
| 1777629369 | 18.89° C | 39% | 1025.4 hPa | 0 mm | - | 687 W/m² | - |
| 1777628468 | 17.22° C | 40% | 1025.4 hPa | 0 mm | - | 673 W/m² | - |
| 1777627568 | 17.78° C | 40% | 1025.4 hPa | 0 mm | - | 651 W/m² | - |
| 1777626668 | 17.22° C | 38% | 1025.3 hPa | 0 mm | - | 627 W/m² | - |
| 1777625767 | 17.78° C | 37% | 1025.3 hPa | 0 mm | - | 596 W/m² | - |
| 1777624867 | 17.78° C | 34% | 1025.3 hPa | 0 mm | - | 566 W/m² | - |
| 1777623967 | 18.33° C | 34% | 1025.4 hPa | 0 mm | - | 532 W/m² | - |
| 1777623066 | 18.33° C | 36% | 1025.4 hPa | 0 mm | - | 496 W/m² | - |
| 1777622166 | 17.78° C | 36% | 1025.1 hPa | 0 mm | - | 458 W/m² | - |
* Rain latest hour (hover to see other rain measurements)
** Current wind speed in m/s (hover to see current wind gust speed)